"Time","Temp","Dewpoint","Humidity","Pressure","Direction","Speed","Gust","Precip","PrecipRate","Solar"
"00:04:58","62.2","61.4","97.5","30.02","156","1.6","4.8","0.00","0.00","0"
"00:09:56","62.3","61.4","97.2","30.02","155","1.3","4.8","0.00","0.00","0"
"00:14:57","62.3","61.4","97","30.02","153","1.5","4.8","0.00","0.00","0"
"00:19:57","62.5","61.6","97","30.01","153","1.7","4.8","0.00","0.00","0"
"00:24:57","62.5","61.6","97","30.01","179","2.2","4.8","0.00","0.00","0"
"00:29:57","62.4","61.5","97","30.01","164","1.9","7.2","0.00","0.00","0"
"00:34:56","62.4","61.5","97","30.01","171","2","6.9","0.00","0.00","0"
"00:39:57","62.4","61.5","97","30.01","172","2.4","7.2","0.00","0.00","0"
"00:44:56","62.5","61.6","97","30.01","203","3.5","7.2","0.00","0.00","0"
"00:49:56","62.4","61.5","97","30.01","193","4.2","8.4","0.00","0.00","0"
"00:54:56","62.3","61.4","97","30.01","198","4.3","12","0.00","0.00","0"
"00:59:56","62.3","61.4","97","30.01","191","4.3","10.8","0.00","0.00","0"
"01:04:56","62.5","61.6","97","29.99","191","3.6","9.2","0.00","0.00","0"
"01:09:59","62.6","61.7","97","29.99","170","2.7","10.8","0.00","0.00","0"
"01:14:58","62.6","61.7","97","29.99","179","2.4","4.8","0.00","0.00","0"
"01:19:58","62.4","61.5","97","29.98","176","2.9","7.2","0.00","0.00","0"
"01:24:57","62.3","61.4","97","29.98","200","2.5","6","0.00","0.00","0"
"01:29:58","62.2","61.3","97","29.98","196","2.9","7.2","0.00","0.00","0"
"01:34:57","62.2","61.3","97","29.98","201","2.3","6.9","0.00","0.00","0"
"01:39:50","62.3","61.4","97","29.98","172","2.4","8.4","0.00","0.00","0"
"01:44:58","62.3","61.4","97","29.98","184","2.1","7.2","0.00","0.00","0"
"01:49:58","62.4","61.5","97","29.98","155","2.2","5.8","0.00","0.00","0"
"01:54:57","62.2","61.3","97","29.98","153","1.9","3.6","0.00","0.00","0"
"01:59:57","62.2","61.3","97","29.98","146","1.3","4.8","0.00","0.00","0"
"02:04:57","62.2","61.3","97","29.98","186","2.3","6","0.00","0.00","0"
"02:09:56","62.2","61.3","97","29.98","171","2.2","10.8","0.00","0.00","0"
"02:14:59","62.2","61.3","97","29.98","167","1.3","7.2","0.00","0.00","0"
"02:19:59","62.3","61.4","97","29.98","156","1.7","7.2","0.00","0.00","0"
"02:24:58","62.3","61.4","97","29.98","181","2.3","7.2","0.00","0.00","0"
"02:29:57","62.4","61.5","97","29.98","187","2.7","6.9","0.00","0.00","0"
"02:34:56","62.4","61.5","97","29.98","200","3","7.2","0.00","0.00","0"
"02:39:56","62.4","61.5","97","29.98","166","2.6","6","0.00","0.00","0"
"02:44:59","62.5","61.6","97","29.98","184","4","12","0.00","0.00","0"
"02:49:59","62.6","61.7","97","29.97","192","4.1","12","0.00","0.00","0"
"02:54:59","62.6","61.7","97","29.97","192","5.7","15","0.00","0.00","0"
"02:59:59","62.6","61.7","97","29.97","185","4.7","12.7","0.00","0.00","0"
"03:04:59","62.7","61.8","97","29.97","177","4.3","13.2","0.00","0.00","0"
"03:09:58","62.8","61.9","97","29.97","183","5.1","16.8","0.00","0.00","0"
"03:14:58","62.8","61.9","97","29.97","183","4.9","17.3","0.00","0.00","0"
"03:19:58","62.8","61.9","97","29.97","186","4.6","8.4","0.00","0.00","0"
"03:24:57","62.9","62","97","29.97","194","5.1","12","0.00","0.00","0"
"03:29:57","62.9","62","97","29.97","198","4.8","12","0.00","0.00","0"
"03:34:57","62.9","61.8","96.1","29.96","207","5.1","10.8","0.00","0.00","0"
"03:39:59","63","61.8","96","29.96","207","5.4","17.3","0.00","0.00","0"
"03:44:58","63","61.9","96.2","29.96","202","4.4","8.4","0.00","0.00","0"
"03:49:56","63.1","61.9","96","29.96","201","3.2","7.2","0.00","0.00","0"
"03:54:58","63.1","61.9","96","29.96","206","5","8.4","0.00","0.00","0"
"03:59:58","63.2","62","96","29.96","214","5.4","12","0.00","0.00","0"
"04:04:58","63.3","62.1","96","29.96","201","5.3","12","0.00","0.00","0"
"04:09:57","63.3","62.1","96","29.96","192","3.6","7.2","0.00","0.00","0"
"04:14:56","63.4","62.2","96","29.97","199","4.4","10.8","0.00","0.00","0"
"04:19:57","63.4","62.2","96","29.97","184","3.4","10.8","0.00","0.00","0"
"04:24:57","63.5","62.3","96","29.97","190","4.2","12","0.00","0.00","0"
"04:29:58","63.5","62.3","96","29.97","176","2.2","5.8","0.00","0.00","0"
"04:34:57","63.5","62.3","96","29.95","172","4.4","13.2","0.00","0.00","0"
"04:39:58","63.5","62.3","96","29.95","173","3.8","10.4","0.00","0.00","0"
"04:44:59","63.6","62.4","96","29.95","193","5.3","13.2","0.00","0.00","0"
"04:49:59","63.5","62.3","96","29.94","184","5.1","12","0.00","0.00","0"
"04:54:59","63.6","62.4","96","29.94","188","4.8","13.2","0.00","0.00","0"
"04:59:56","63.6","62.4","96","29.95","192","3.6","11.5","0.00","0.00","0"
"05:04:56","63.6","62.4","96","29.95","168","4.2","10.8","0.00","0.00","0"
"05:09:59","63.7","62.5","96","29.95","191","5.2","13.2","0.01","0.00","0"
"05:14:58","63.7","62.5","96","29.95","180","3.3","9.6","0.01","0.01","0"
"05:19:59","63.7","62.5","96","29.95","208","4.3","9.6","0.01","0.01","0"
"05:24:58","63.7","62.5","96","29.95","208","4.6","12","0.01","0.01","0"
"05:29:59","63.7","62.5","96","29.96","192","4.1","8.4","0.01","0.01","0"
"05:34:59","63.7","62.5","96","29.96","207","3.5","8.4","0.01","0.01","0"
"05:39:59","63.6","62.4","96","29.96","203","2.6","7.2","0.01","0.01","0"
"05:44:58","63.6","62.4","96","29.96","196","3.3","6","0.01","0.01","0"
"05:49:58","63.6","62.4","96","29.96","186","1.5","3.6","0.01","0.01","0"
"05:54:57","63.6","62.4","96","29.96","187","2.9","6","0.01","0.01","0"
"05:59:57","63.6","62.4","96","29.96","179","1.7","3.6","0.01","0.01","0"
"06:04:56","63.6","62.4","96","29.95","188","2","4.8","0.01","0.01","0"
"06:09:56","63.6","62.4","96","29.95","149","2.7","4.8","0.01","0.01","0"
"06:14:59","63.6","62.4","96","29.96","184","2.8","6","0.01","0.00","0"
"06:19:59","63.6","62.4","96","29.96","164","3.5","8.4","0.01","0.00","0"
"06:24:58","63.6","62.4","96","29.96","191","3.8","8.4","0.01","0.00","0"
"06:29:58","63.6","62.4","96","29.96","197","3.7","8.4","0.01","0.00","0"
"06:34:58","63.6","62.4","96","29.96","196","3.6","9.6","0.01","0.00","0"
"06:39:58","63.7","62.5","96","29.96","196","4.4","8.4","0.01","0.00","0"
"06:44:57","63.7","62.5","96","29.97","193","3.6","8.4","0.01","0.00","0"
"06:49:57","63.7","62.5","96","29.97","192","3.8","8.4","0.01","0.00","0"
"06:54:59","63.7","62.6","96.2","29.97","204","4.8","10.8","0.01","0.00","0"
"06:59:59","63.8","62.9","97","29.97","197","4.4","12","0.01","0.00","0"
"07:04:58","63.8","62.9","96.8","29.97","199","5","13.2","0.01","0.00","0"
"07:09:57","63.9","62.7","96.2","29.97","192","4.3","8.4","0.01","0.00","0"
"07:14:56","64","62.8","96","29.98","193","3.7","12","0.01","0.00","0"
"07:19:56","64","62.8","96","29.98","188","4","12","0.01","0.00","0"
"07:24:56","64.1","62.9","96","29.98","192","4","10.8","0.01","0.00","0"
"07:29:56","64.1","62.9","96","29.98","194","4.2","10.8","0.01","0.00","0"
"07:34:57","64.2","63","96","29.97","196","4.9","13.2","0.01","0.00","0"
"07:39:58","64.2","63","96","29.97","195","3.2","6","0.01","0.00","5"
"07:44:57","64.3","63.1","96","29.98","183","3.3","7.2","0.01","0.00","11"
"07:49:58","64.3","63.1","96","29.98","189","4.2","10.8","0.01","0.00","11"
"07:54:58","64.4","63.2","96","29.98","189","4.4","12","0.01","0.00","19"
"07:59:59","64.4","63.2","96","29.98","199","4.6","13.2","0.01","0.00","14"
"08:04:58","64.5","63.3","96","29.98","197","4.4","9.6","0.01","0.00","19"
"08:09:57","64.6","63.1","95.1","29.98","190","4.5","10.8","0.01","0.00","23"
"08:14:57","64.7","63.2","95","29.98","202","5.4","12","0.01","0.00","25"
"08:19:58","64.8","63.3","95","29.98","204","5.4","10.8","0.01","0.00","35"
"08:24:58","64.9","63.4","95","29.98","209","3.5","7.2","0.01","0.00","47"
"08:29:59","65","63.5","95","29.98","210","4.3","10.8","0.01","0.00","62"
"08:34:59","65","63.5","95","29.98","223","4","7.2","0.01","0.00","63"
"08:39:59","65.2","63.7","94.7","29.98","207","4.9","10.8","0.01","0.00","69"
"08:44:59","65.4","63.8","94.6","29.98","206","3.6","8.4","0.01","0.00","93"
"08:49:56","65.7","63.9","94","29.98","222","4.7","12","0.01","0.00","123"
"08:54:56","65.9","64.1","94","29.98","223","4.3","8.4","0.01","0.00","65"
"08:59:57","66","64.2","94","29.99","214","4.2","8.4","0.01","0.00","77"
"09:04:56","66.1","64","93","29.99","220","4.5","13.2","0.01","0.00","113"
"09:09:59","66.4","64.3","93","29.99","216","4.8","10.8","0.01","0.00","118"
"09:14:59","66.6","64.4","92.6","29.99","229","4.2","8.4","0.01","0.00","134"
"09:19:56","67.1","64.7","92","29.99","229","3.5","7.2","0.01","0.00","232"
"09:24:59","67.8","65.2","91.1","29.99","219","3.2","8.4","0.01","0.00","309"
"09:29:58","68.1","65","89.8","29.99","216","3.8","9.6","0.01","0.00","264"
"09:34:58","68","64.7","89.3","29.99","195","4.4","12","0.01","0.00","165"
"09:39:59","68.2","65.1","89.7","29.99","233","2.7","10.8","0.01","0.00","211"
"09:44:56","68.4","64.8","88.5","29.99","218","3.7","10.4","0.01","0.00","260"
"09:49:56","68.2","64.8","88.8","29.99","213","5.2","9.2","0.01","0.00","206"
"09:54:56","68.7","65.2","88.8","29.99","207","4.1","8.4","0.01","0.00","343"
"09:59:56","69.4","65.4","87.1","30.00","215","5.2","10.8","0.01","0.00","329"
"10:04:56","69.7","65.3","85.9","30.00","222","5.9","13.2","0.01","0.00","316"
"10:09:59","69.8","65.4","85.8","30.00","207","4.9","12","0.01","0.00","329"
"10:14:59","70.4","65.8","85.4","30.00","227","3.7","11.5","0.01","0.00","343"
"10:19:59","70.7","65.6","84.1","29.99","224","3.5","6","0.01","0.00","397"
"10:24:59","70.6","65.4","83.6","29.99","242","5.3","10.8","0.01","0.00","410"
"10:29:59","71.1","65.9","83.6","30.00","231","4.8","9.6","0.01","0.00","420"
"10:34:59","71.4","65.8","82.3","30.00","232","4.7","8.4","0.01","0.00","425"
"10:39:56","71.7","65.9","82","30.00","225","5.9","12","0.01","0.00","420"
"10:44:56","71.4","65.4","81.2","30.01","238","6.7","12","0.01","0.00","334"
"10:49:57","70.6","64.8","82","30.01","232","6","11.5","0.01","0.00","417"
"10:54:57","71.5","65.6","81.5","30.01","224","4","7.2","0.01","0.00","418"
"10:59:57","72.9","66.1","79.5","30.01","213","3.9","7.2","0.01","0.00","406"
"11:04:57","73","66.1","79.1","30.00","233","3.5","6","0.01","0.00","410"
"11:09:56","73.1","65.6","77.3","30.00","201","4.3","8.4","0.01","0.00","411"
"11:14:56","73.2","65.8","77.6","30.00","218","3.9","7.2","0.01","0.00","432"
"11:19:57","73.5","65.4","75.8","29.99","209","3.8","10.8","0.01","0.00","476"
"11:24:57","73.8","65.7","75.9","29.99","219","4.1","7.2","0.01","0.00","497"
"11:29:57","74.3","65.5","74.2","29.99","212","3.4","6.9","0.01","0.00","441"
"11:34:57","74.9","66","73.9","29.99","203","3.1","7.2","0.01","0.00","925"
"11:39:58","75","65","71","29.99","227","4.9","7.2","0.01","0.00","925"
"11:44:57","75","64.7","70.5","29.99","211","2.8","7.2","0.01","0.00","455"
"11:49:57","75.4","64.3","68.4","29.97","224","4.8","8.4","0.01","0.00","464"
"11:54:57","75.4","64.1","68","29.97","233","4.8","10.8","0.01","0.00","464"
"11:59:58","75.3","63.8","67.4","29.97","210","3.9","7.2","0.01","0.00","483"
"12:04:59","75.6","64.6","68.6","29.96","217","3.6","6.9","0.01","0.00","482"
"12:09:57","76.3","64.2","66.1","29.96","215","4.9","9.6","0.01","0.00","489"
"12:14:58","76.8","63.8","64.2","29.96","193","3.5","12","0.01","0.00","513"
"12:19:58","76.8","63.5","63.5","29.96","209","5","10.8","0.01","0.00","559"
"12:24:58","76.4","62.5","62.3","29.96","213","4.7","8.4","0.01","0.00","559"
"12:29:58","75.9","62.9","64.2","29.96","233","4.3","8.4","0.01","0.00","575"
"12:34:58","76.5","63.6","64.3","29.95","261","4.1","8.1","0.01","0.00","575"
"12:39:59","76.2","62.6","62.9","29.95","223","3","7.2","0.01","0.00","151"
"12:44:59","75.4","61.1","61.1","29.95","220","2.6","4.8","0.01","0.00","174"
"12:49:56","75.7","62.3","63.2","29.94","192","3.2","8.4","0.01","0.00","499"
"12:54:56","76","62.2","62.5","29.94","234","3.5","8.4","0.01","0.00","508"
"12:59:57","76.5","61.3","59.4","29.94","244","4.8","8.4","0.01","0.00","508"
"13:04:57","77.8","61.1","56.5","29.93","226","3.8","6","0.01","0.00","475"
"13:09:56","78.6","61.7","56.1","29.93","221","3.3","8.4","0.01","0.00","492"
"13:14:58","79.2","61.2","54.3","29.93","245","4.1","8.4","0.01","0.00","501"
"13:19:59","78.8","60.2","53","29.93","259","4.1","8.1","0.01","0.00","527"
"13:24:56","79.1","60.5","53","29.93","262","3.2","12","0.01","0.00","538"
"13:29:57","77.7","60.3","55.3","29.93","296","4.1","17.3","0.01","0.00","156"
"13:34:57","76.1","60","57.6","29.92","332","4.6","12","0.01","0.00","139"
"13:39:58","75.2","60.2","59.7","29.92","290","2.1","5.8","0.01","0.00","193"
"13:44:59","75.3","60.2","59.5","29.93","286","2.6","7.2","0.01","0.00","290"
"13:49:59","75.7","59.7","57.5","29.93","274","3.1","6.9","0.01","0.00","383"
"13:54:59","76.9","58.9","53.9","29.93","242","3.3","7.2","0.01","0.00","383"
"13:59:59","77.3","57.5","50.6","29.93","240","3.8","7.2","0.01","0.00","367"
"14:04:59","77.5","56.9","49.2","29.92","258","3.9","6","0.01","0.00","360"
"14:09:57","78","57.3","49.1","29.92","228","3.5","7.2","0.01","0.00","380"
"14:14:57","78.1","56.8","48","29.92","294","3.1","6","0.01","0.00","330"
"14:19:58","77","54.8","46.3","29.92","277","3","7.2","0.01","0.00","251"
"14:24:58","77.1","54.7","46","29.92","261","3.4","6","0.01","0.00","323"
"14:29:58","78","55.3","45.6","29.92","224","2.5","5.8","0.01","0.00","306"
"14:34:59","78.4","55.1","44.8","29.92","230","1.7","4.8","0.01","0.00","287"
"14:39:56","77.9","54","43.7","29.92","279","3.7","8.4","0.01","0.00","220"
"14:44:57","77.4","54.5","45.2","29.92","249","2.8","6","0.01","0.00","213"
"14:49:57","77.1","53.3","43.8","29.92","309","5","12","0.01","0.00","183"
"14:54:58","76.4","53.3","44.7","29.92","305","4.2","15","0.01","0.00","176"
"14:59:58","76.2","53.4","45.3","29.92","308","3.9","8.4","0.01","0.00","190"
"15:04:58","76.1","53.6","45.7","29.92","267","4.3","13.2","0.01","0.00","163"
"15:09:57","75.9","54.5","47.5","29.92","297","3.2","7.2","0.01","0.00","130"
"15:14:58","75.7","53.5","46.2","29.93","287","2.7","6","0.01","0.00","116"
"15:19:58","75.5","53.9","47.1","29.93","245","3.2","6","0.01","0.00","107"
"15:24:59","75.3","53.3","46.4","29.93","271","2.7","6","0.01","0.00","107"
"15:29:56","75.3","53.8","47.2","29.93","280","2.2","4.8","0.01","0.00","104"
"15:34:56","75.2","52.7","45.5","29.93","348","3.3","10.8","0.01","0.00","125"
"15:39:57","75.3","52.6","45.1","29.93","355","1.8","3.6","0.01","0.00","199"
"15:44:57","76","53.6","45.9","29.93","337","2.2","4.8","0.01","0.00","236"
"15:49:58","76.5","52.9","44","29.93","272","1.8","6","0.01","0.00","213"
"15:54:58","76.5","53","44.1","29.93","272","2.6","7.2","0.01","0.00","169"
"15:59:58","76","51.9","43.1","29.94","289","2.6","4.8","0.01","0.00","72"
"16:04:58","75.4","51.6","43.4","29.94","309","2.6","7.2","0.01","0.00","74"
"16:09:57","74.9","51.2","43.5","29.94","290","3","6.9","0.01","0.00","97"
"16:14:57","74.7","51.2","43.8","29.94","331","2.9","7.2","0.01","0.00","95"
"16:19:58","74.4","50.8","43.5","29.94","326","3.4","7.2","0.01","0.00","74"
"16:24:58","74.1","49.9","42.7","29.94","318","4.6","10.8","0.01","0.00","67"
"16:29:59","73.9","49.4","42","29.95","339","5.1","12","0.01","0.00","54"
"16:34:56","73.6","49.1","42","29.95","335","4.3","10.8","0.01","0.00","47"
"16:39:57","73.2","49","42.4","29.95","334","3.8","7.2","0.01","0.00","40"
"16:44:58","72.9","48.9","42.8","29.96","337","2.8","7.2","0.01","0.00","35"
"16:49:58","72.5","48.5","42.7","29.96","322","3.3","6","0.01","0.00","32"
"16:54:59","72.2","48.2","42.5","29.96","317","2.9","6","0.01","0.00","28"
"16:59:56","71.9","48.2","43.1","29.97","335","2.6","6","0.01","0.00","26"
"17:04:56","71.4","48","43.5","29.97","336","2.7","6","0.01","0.00","21"
"17:09:59","71","47.9","43.8","29.97","333","3","7.2","0.01","0.00","12"
"17:14:56","70.7","47.7","44","29.98","348","3","8.4","0.01","0.00","7"
"17:19:57","70.2","47.5","44.4","29.98","341","3.4","13.2","0.01","0.00","5"
"17:24:58","69.8","47.8","45.5","29.98","338","4.1","8.4","0.01","0.00","5"
"17:29:56","69.5","47.8","46","29.99","332","3.4","10.8","0.01","0.00","0"
"17:34:57","69.2","47.9","46.6","29.99","349","3.4","10.8","0.01","0.00","0"
"17:39:59","68.9","47.8","47.1","29.99","332","3.8","12","0.01","0.00","0"
"17:44:56","68.6","47.9","47.6","29.99","328","3.7","11.5","0.01","0.00","0"
"17:49:57","68.3","47.9","48","29.99","347","4.2","7.2","0.01","0.00","0"
"17:54:58","68.1","48","48.7","29.99","323","2.9","6.9","0.01","0.00","0"
"17:59:59","67.8","47.9","49","30.00","317","2.9","7.2","0.01","0.00","0"
"18:04:59","67.5","48.2","50","30.00","337","3.2","6","0.01","0.00","0"
"18:09:58","67.2","48.2","50.4","30.00","313","2.1","5.8","0.01","0.00","0"
"18:14:56","66.7","48.1","51.3","30.00","325","2.2","4.8","0.01","0.00","0"
"18:19:59","66","47.9","52","30.00","317","2","6","0.01","0.00","0"
"18:24:56","65.6","48","52.9","30.00","339","2.4","6","0.01","0.00","0"
"18:29:58","65.3","47.7","53","30.01","335","1.1","3.6","0.01","0.00","0"
"18:34:59","64.8","47.8","54","30.01","335","0.4","2.4","0.01","0.00","0"
"18:39:56","64.3","47.8","55","30.01","335","0.2","1.2","0.01","0.00","0"
"18:44:57","63.7","47.6","55.8","30.02","335","0.3","1.2","0.01","0.00","0"
"18:49:59","63","47.8","57.6","30.02","321","0.7","2.4","0.01","0.00","0"
"18:54:59","62.4","47.8","58.8","30.02","321","1.2","3.6","0.01","0.00","0"
"18:59:57","61.7","47.8","60.2","30.02","321","1.2","2.4","0.01","0.00","0"
"19:04:57","61.2","47.4","60.3","30.02","339","2","4.8","0.01","0.00","0"
"19:09:56","61.4","47.2","59.7","30.02","344","2.1","6","0.01","0.00","0"
"19:14:57","61.8","47.3","58.9","30.03","333","2.8","5.8","0.01","0.00","0"
"19:19:59","62.3","47.1","57.6","30.03","330","2.1","4.8","0.01","0.00","0"
"19:24:59","62.6","47.1","57","30.03","318","2.1","6","0.01","0.00","0"
"19:29:57","62.7","47.2","57","30.03","315","2.1","3.6","0.01","0.00","0"
"19:34:58","62.7","47.1","56.6","30.03","317","2.1","4.8","0.01","0.00","0"
"19:39:59","62.6","47.1","57","30.03","337","1.8","3.6","0.01","0.00","0"
"19:44:56","62.3","46.9","57","30.04","332","2.4","4.8","0.01","0.00","0"
"19:49:57","62.2","46.8","57","30.04","335","2.2","6","0.01","0.00","0"
"19:54:58","62.1","46.9","57.6","30.04","341","2.7","6","0.01","0.00","0"
"19:59:59","62","46.9","57.8","30.04","322","2.9","4.8","0.01","0.00","0"
"20:04:56","62","47","58","30.04","343","2.8","4.8","0.01","0.00","0"
"20:09:58","61.9","47","58","30.04","333","3","7.2","0.01","0.00","0"
"20:14:59","61.9","47","58","30.04","338","3.6","7.2","0.01","0.00","0"
"20:19:56","62","47","58","30.04","329","3.2","6.9","0.01","0.00","0"
"20:24:57","62","47","58","30.04","325","2.6","4.8","0.01","0.00","0"
"20:29:58","62","47","58","30.05","318","3","4.8","0.01","0.00","0"
"20:34:59","61.9","47","58","30.05","332","2.3","4.8","0.01","0.00","0"
"20:39:57","61.7","46.8","58.1","30.05","357","1.9","4.8","0.01","0.00","0"
"20:44:58","61.5","47","59","30.05","338","1.8","4.8","0.01","0.00","0"
"20:49:59","61.2","47","59.5","30.05","341","1.8","3.6","0.01","0.00","0"
"20:54:56","60.9","46.9","60","30.05","345","2.3","6","0.01","0.00","0"
"20:59:57","60.6","46.9","60.6","30.05","339","2.1","4.8","0.01","0.00","0"
"21:04:58","60.4","46.9","61","30.05","340","2.7","6","0.01","0.00","0"
"21:09:56","60.1","46.8","61.6","30.05","343","2.7","6","0.01","0.00","0"
"21:14:57","59.9","46.8","62","30.05","342","2.3","6","0.01","0.00","0"
"21:19:59","59.8","46.8","62.1","30.05","3","2.2","4.8","0.01","0.00","0"
"21:24:56","59.7","47.1","63","30.05","8","2.9","6","0.01","0.00","0"
"21:29:57","59.5","46.9","63","30.06","9","1.6","5.8","0.01","0.00","0"
"21:34:58","59.3","46.8","63.5","30.06","353","2","4.8","0.01","0.00","0"
"21:39:56","59.1","46.9","64","30.06","10","1.2","4.8","0.01","0.00","0"
"21:44:57","58.9","46.7","64","30.06","16","0.7","3.6","0.01","0.00","0"
"21:49:59","58.7","46.6","64.2","30.06","350","1.6","3.6","0.01","0.00","0"
"21:54:59","58.5","46.8","65","30.06","338","1.8","3.6","0.01","0.00","0"
"21:59:57","58.4","46.7","65","30.06","336","0.7","3.6","0.01","0.00","0"
"22:04:57","58.2","46.5","65","30.06","338","0.9","2.4","0.01","0.00","0"
"22:09:56","58","46.5","65.6","30.06","338","0.2","2.3","0.01","0.00","0"
"22:14:57","57.5","46.2","66","30.07","338","0","1.2","0.01","0.00","0"
"22:19:59","56.9","46.1","67","30.07","338","0","1.2","0.01","0.00","0"
"22:24:56","56.4","46.1","68.2","30.07","343","0.7","3.6","0.01","0.00","0"
"22:29:57","56.2","46.2","69","30.07","346","0.5","3.6","0.01","0.00","0"
"22:34:58","56","46.1","69.2","30.07","346","0","0","0.01","0.00","0"
"22:39:56","55.8","46.2","70","30.07","346","0.1","1.2","0.01","0.00","0"
"22:44:57","55.6","46","70","30.08","346","0.4","1.2","0.01","0.00","0"
"22:49:59","55.4","46","70.4","30.08","346","0","1.2","0.01","0.00","0"
"22:54:56","55","45.8","71","30.08","346","0","1.2","0.01","0.00","0"
"22:59:57","54.6","45.5","71.3","30.08","346","0","1.2","0.01","0.00","0"
"23:04:57","54.2","45.4","72.2","30.08","346","0","0","0.01","0.00","0"
"23:09:56","53.7","45.4","73.5","30.08","346","0","0","0.01","0.00","0"
"23:14:58","53.5","45.4","74","30.08","346","0","0","0.01","0.00","0"
"23:19:59","53.2","45.2","74.3","30.08","346","0","0","0.01","0.00","0"
"23:24:56","52.8","45.1","75","30.08","346","0","0","0.01","0.00","0"
"23:29:57","52.5","45","75.6","30.09","346","0","0","0.01","0.00","0"
"23:34:58","52.3","45.1","76.2","30.09","346","0","0","0.01","0.00","0"
"23:39:56","52.3","45.3","77","30.09","346","0","0","0.01","0.00","0"
"23:44:57","52.5","45.3","76.3","30.09","335","2","6","0.01","0.00","0"
